SCP
0 0 0 0 0 0 -0 -0 0 0 0 0 0 0 0 0 0 0 0 0 -0 -0 -0 -0 -0 -0 -0 -0 -0 -0 -0 -0 -0 -0 -0 -0 -0 -0 -0 -0 -0 -0 -0 -0 0 0 0 0 0
0 0 0 0 0 0 -0 -0 0 0 0 0 0 0 0 0 0 0 -0 -0 -0 -0 0 -0 -0 -0 -0 -0 -0 -0 -0 -0 -0 -0 -0 -0 -0 -0 0 -0 -0 -0 -0 -0 0 0 0 0 0
0 0 0 0 0 0 -0 0 0 0 0 0 0 0 0 0 0 0 0 -0 -0 -0 -0 -0 -0 -0 -0 -0 -0 -0 -0 -0 -0 -0 -0 -0 -0 -0 -0 -0 -0 -0 -0 0 0 0 0 0 0
0 0 0 0 0 0 0 0 0 0 0 0 0 0 -0 -0 -0 -0 -1 -1 -0 -0 -0 -0 -0 -0 -0 -0 -0 -0 -0 -0 -0 -0 0 -0 -0 -0 -0 -0 -0 -0 0 0 0 0 0 0 0
0 0 0 0 0 0 0 0 -0 -0 0 0 0 0 -0 -0 -0 -1 -1 -1 -1 -0 -0 -0 -0 -0 -0 -0 -0 -0 -0 -0 -0 -0 0 0 0 -0 -0 -0 -0 -0 0 0 0 0 0 0 0
0 0 0 0 0 0 -0 -0 -0 -0 -0 0 0 -0 0 -0 -0 -0 -0 -0 -0 -0 -0 -0 -0 -0 -0 -0 -0 -0 -0 -0 -0 0 0 -0 -0 -0 -0 0 0 0 0 0 0 0 0 0 0
0 0 0 0 0 0 -0 -0 0 0 -0 0 -0 0 0 0 0 0 0 -0 -0 -0 -0 -0 0 -0 -0 -0 -0 -0 -0 -0 -0 -0 -0 -0 -0 -0 0 0 0 0 0 0 0 0 0 0 0
0 0 0 0 0 -0 -0 -0 0 0 0 1 1 1 0 0 0 0 0 0 0 0 0 -0 0 0 0 0 -0 -0 -0 -0 -0 -0 -0 -0 -0 0 0 0 0 0 0 0 0 0 0 0 0
0 0 0 0 0 0 0 0 0 0 0 1 2 0 0 0 0 0 0 0 0 0 0 0 -0 0 0 0 0 0 -0 0 0 0 0 -0 -0 -0 0 0 0 0 0 0 0 0 0 0 0
0 0 0 0 0 0 0 0 0 0 1 2 2 1 -0 -0 -0 0 0 0 0 0 0 0 0 0 0 0 -0 0 0 -0 0 -0 -0 -0 -0 -0 0 0 0 0 0 0 0 0 0 0 0
0 0 0 0 0 0 0 0 0 0 1 1 1 0 0 0 0 -0 0 0 0 0 0 0 0 0 0 0 0 0 -0 -0 -0 -0 -0 -0 -0 -0 -0 0 0 0 0 0 0 0 0 0 0
0 0 0 0 0 0 -0 -0 0 0 0 0 1 0 0 0 0 0 0 0 0 0 0 0 0 0 0 0 0 0 0 -0 -0 -0 -0 0 -0 -0 -0 0 0 0 0 0 0 0 0 0 0
0 0 0 0 0 0 -0 0 0 0 0 0 1 0 0 0 0 0 0 0 -0 0 0 0 0 0 0 0 0 0 0 0 0 0 -0 0 0 0 0 0 0 0 0 0 0 0 0 0 0
0 0 0 0 0 0 -0 0 0 0 0 1 2 1 0 0 0 1 0 0 0 0 0 0 0 0 0 0 0 0 0 0 0 0 0 0 0 0 0 0 0 0 0 0 0 0 0 0 0
0 0 0 0 0 0 -0 0 0 0 0 3 2 1 0 1 1 1 0 0 0 0 0 0 0 0 0 0 0 0 0 0 0 0 0 0 0 0 0 0 0 0 0 0 0 0 0 0 0
0 0 0 0 0 0 0 0 0 0 0 1 1 1 2 1 1 1 1 2 0 0 0 0 0 0 0 0 0 0 0 0 0 0 0 0 0 0 0 0 0 0 0 0 0 0 0 0 0
0 0 0 0 0 0 0 0 0 0 0 3 3 2 1 0 0 0 2 1 0 0 0 0 0 0 0 0 0 0 0 0 0 0 0 0 0 1 1 1 1 1 1 0 0 0 0 0 0
0 0 0 0 0 0 0 0 0 0 0 0 1 1 0 0 0 0 0 0 0 0 0 0 1 0 1 1 1 1 1 1 1 1 1 1 1 1 1 1 1 1 0 0 0 0 0 0 0
0 0 0 0 0 0 0 0 0 0 0 0 0 1 0 0 0 0 0 0 0 0 0 0 0 -0 2 2 2 2 1 1 1 1 1 1 1 1 1 1 1 1 1 0 0 0 0 0 0
0 0 0 0 0 0 0 0 0 0 0 0 0 0 0 0 0 0 0 0 0 0 0 -0 0 -0 1 1 1 1 1 1 1 1 1 0 1 1 1 1 1 1 1 1 0 0 0 0 0
0 0 0 0 0 0 0 0 0 0 0 0 0 0 1 0 0 0 0 0 0 0 0 0 0 -0 1 2 1 2 1 1 1 1 1 1 1 1 1 1 1 0 0 0 0 0 0 0 0
0 0 0 0 0 0 0 0 0 0 0 0 0 0 1 1 0 0 0 -0 0 0 0 -0 -0 0 0 1 1 1 1 1 1 2 1 1 1 1 1 0 0 0 0 0 0 0 0 0 0
0 0 0 0 0 0 0 0 0 0 0 0 0 0 0 1 1 1 0 -0 -0 0 -0 -0 -0 0 0 1 1 1 0 1 1 1 0 0 0 0 0 0 0 0 0 0 0 0 0 0 0
0 0 0 0 0 0 0 0 0 0 0 0 0 0 0 0 1 0 0 0 0 0 0 0 1 0 1 0 0 1 1 1 0 0 0 0 0 0 0 0 0 0 0 0 0 0 0 0 0
0 0 0 0 0 0 0 0 0 0 0 0 0 0 0 0 0 0 0 0 0 0 0 1 0 0 0 0 0 0 0 0 0 0 0 0 0 0 0 0 0 0 0 0 0 0 0 0 0
0 0 0 0 0 0 0 0 0 0 0 0 0 0 0 0 0 0 0 0 0 1 0 0 0 0 0 0 0 0 0 0 0 0 0 0 0 0 0 0 0 0 0 0 0 0 0 0 0
0 0 0 0 0 0 0 0 0 0 0 0 0 0 0 0 0 0 0 1 1 0 0 0 0 0 -0 0 0 0 0 0 0 0 0 0 0 0 0 0 0 0 0 0 0 0 0 0 0
0 0 0 0 0 0 0 0 0 0 0 0 0 0 0 0 1 1 1 1 0 0 0 -0 0 -0 0 0 0 0 0 0 0 0 0 0 0 0 0 0 0 0 0 0 0 0 0 0 0
0 0 0 0 0 0 0 0 0 0 0 0 0 0 1 1 1 1 0 0 0 0 -0 -0 0 0 0 0 0 0 0 0 0 0 0 0 0 0 0 0 0 0 0 0 0 0 0 0 0
0 -0 0 0 0 0 0 0 0 0 0 0 0 0 1 0 0 0 0 0 0 0 0 0 0 0 0 0 0 0 0 0 0 0 0 0 0 0 0 0 0 0 0 0 0 0 0 0 0
Wind_Speed_500mb
21 22 20 10 4 6 8 13 12 4 2 1 15 9 6 19 12 11 22 74 75 76 70 62 57 55 50 44 41 41 44 47 47 46 45 42 39 36 35 35 34 33 32 31 30 30 30 30 29
18 17 13 3 7 5 12 13 39 13 18 31 27 35 10 14 37 18 67 65 74 74 70 63 58 57 52 46 41 41 42 45 44 44 42 40 37 35 31 32 32 31 29 26 24 24 24 25 26
15 16 13 8 9 16 12 22 11 4 27 24 6 11 45 22 35 49 72 75 77 73 70 64 60 59 54 48 42 40 40 42 41 40 39 37 34 31 30 28 27 27 25 22 19 18 19 20 21
12 12 8 7 18 16 23 15 5 10 14 16 28 14 15 45 55 68 77 82 75 72 69 63 60 61 55 49 44 40 38 39 38 37 35 33 30 27 26 25 23 23 22 19 15 14 13 14 15
21 7 4 9 21 13 21 44 22 12 28 28 35 27 9 41 54 72 81 78 75 71 65 62 61 62 57 51 46 40 37 35 37 35 33 30 26 24 22 21 19 18 17 16 14 13 12 10 11
12 7 4 23 17 31 33 48 24 39 34 44 51 77 3 38 67 80 80 82 74 71 65 62 61 60 56 51 46 41 35 33 33 33 31 29 25 22 20 17 16 16 15 15 15 13 12 12 10
10 8 12 9 30 35 30 12 25 36 23 46 86 16 32 57 70 73 78 78 71 65 64 64 63 59 55 51 47 41 36 33 32 33 32 29 25 21 19 17 15 14 13 14 14 14 13 13 13
16 6 9 14 19 25 10 38 41 33 25 33 67 9 27 65 60 58 75 72 70 67 63 66 66 63 59 54 48 43 38 33 31 33 34 32 27 22 19 16 13 12 11 11 11 12 11 11 12
27 6 16 20 21 10 27 6 22 25 32 14 18 70 66 71 62 61 65 63 64 61 62 64 66 64 60 56 51 46 43 39 35 36 35 32 27 22 18 14 12 11 11 11 12 13 13 13 11
13 13 16 9 10 12 21 15 36 7 7 20 48 60 91 77 70 72 68 66 68 62 59 59 61 62 61 59 56 51 46 41 37 35 34 32 28 23 18 16 13 12 12 13 15 17 19 18 16
10 16 23 9 33 43 37 21 30 13 5 53 70 78 96 80 76 71 68 58 58 60 61 59 57 57 57 55 51 49 43 38 35 34 33 32 30 27 24 20 15 13 14 17 21 22 23 21 23
10 8 33 18 41 44 25 25 21 37 33 49 85 105 90 74 75 74 71 63 59 66 64 62 59 57 53 49 47 42 39 36 34 32 32 32 30 28 25 19 9 11 16 19 23 23 24 26 21
19 12 28 36 61 68 42 30 19 50 62 56 99 104 102 92 80 82 71 68 58 63 66 65 61 57 52 48 44 39 35 31 26 25 25 27 28 27 26 21 12 14 20 23 23 24 22 25 30
13 20 28 48 51 57 30 19 25 60 61 80 102 103 97 98 89 80 80 74 64 55 63 61 57 52 46 40 33 31 27 23 20 17 14 11 15 24 24 16 17 19 28 33 32 29 33 33 35
23 20 21 24 47 28 7 19 36 68 27 73 77 91 88 72 67 66 73 69 63 58 55 59 53 46 43 34 20 19 24 19 16 10 5 5 4 5 15 23 24 21 30 31 39 37 41 43 39
6 7 7 12 26 19 21 27 30 46 32 55 69 60 68 62 54 66 57 52 65 63 59 53 50 45 46 39 32 28 23 18 13 14 12 10 12 14 16 20 26 28 29 33 33 32 31 38 44
6 8 17 12 15 11 26 18 32 37 27 37 61 69 70 56 51 58 65 44 41 47 59 60 57 49 46 42 37 33 27 22 19 21 19 19 19 20 25 26 24 28 35 40 38 36 33 42 48
13 10 9 25 11 24 21 22 14 24 26 34 49 73 74 61 50 43 47 43 46 29 29 54 55 53 48 42 40 41 42 36 29 25 27 17 19 26 29 31 33 39 33 32 32 36 36 44 53
20 19 14 12 18 14 27 10 22 15 10 28 50 54 70 65 66 57 60 47 68 61 27 28 41 42 49 52 53 53 46 43 39 31 23 22 24 29 34 36 35 30 31 28 32 36 44 54 55
27 26 27 22 16 13 15 21 19 12 9 27 46 53 53 55 55 60 56 46 26 52 50 88 61 54 49 44 28 34 40 35 30 31 21 14 15 20 22 20 21 25 24 29 36 43 40 45 51
27 22 24 20 13 16 15 5 10 10 12 16 44 51 63 69 65 61 59 46 36 44 27 73 32 32 38 34 28 22 18 21 26 26 24 25 23 27 26 27 27 23 24 39 37 41 40 48 51
24 27 28 30 16 15 17 12 10 13 8 12 33 50 55 74 67 59 50 47 41 63 36 56 67 45 45 36 33 28 29 15 15 11 13 17 17 21 27 25 31 29 36 36 37 43 41 32 33
17 20 24 26 23 9 9 12 19 10 11 14 16 49 61 62 62 57 47 39 36 65 37 38 43 41 36 33 26 22 19 16 21 16 15 19 20 21 21 18 23 18 21 24 22 15 21 23 26
22 21 26 23 12 15 16 13 11 16 31 9 9 43 51 65 65 63 51 54 45 48 52 45 33 25 20 15 11 12 11 14 20 22 19 13 11 14 10 11 11 11 13 19 21 23 25 23 25
23 20 6 8 7 10 15 18 14 32 15 16 17 37 49 74 81 73 60 48 50 47 42 39 41 36 32 22 16 12 8 9 14 10 4 7 3 7 7 10 13 15 16 17 18 21 23 26 28
18 10 5 9 11 11 18 16 18 24 26 41 45 51 44 74 87 78 63 59 52 51 54 50 41 37 32 30 22 10 4 3 3 5 5 2 3 6 11 16 19 20 22 26 28 31 32 32 32
12 15 23 5 2 14 8 4 15 15 17 21 41 54 46 52 76 75 65 58 59 58 54 43 38 31 27 23 19 13 9 5 11 7 4 4 8 13 19 21 25 27 29 31 34 36 36 37 37
20 16 11 4 17 13 6 10 13 21 20 22 26 37 36 53 49 55 58 64 71 69 60 47 41 31 27 23 18 13 10 10 8 3 10 10 12 13 15 21 24 25 28 32 34 36 37 36 33
11 9 8 1 12 10 11 14 12 18 25 28 23 48 69 77 75 76 78 81 81 75 65 57 46 41 35 25 21 17 14 10 7 6 6 8 10 12 16 20 24 29 32 34 35 32 30 30 29
21 4 4 6 6 4 10 7 16 18 33 38 44 63 76 94 90 92 90 85 79 73 64 53 45 39 31 23 21 23 19 14 9 8 10 13 16 18 21 22 25 28 32 33 33 31 29 30 32
Wind_Direction_500mb
240 237 253 287 51 72 243 246 248 73 6 194 85 96 126 147 269 244 161 168 169 166 164 163 164 161 157 150 143 137 140 139 137 136 138 138 137 132 130 128 127 127 125 123 123 123 123 122 121
231 227 218 200 133 189 252 211 238 247 199 131 137 99 60 122 259 193 163 169 171 168 166 164 164 163 161 153 147 140 142 142 139 138 139 139 137 134 132 132 135 137 134 131 132 130 128 127 128
214 194 171 162 189 212 232 233 116 346 172 134 310 174 138 217 239 179 171 169 171 169 166 165 166 165 164 157 151 146 144 145 143 140 140 140 139 139 138 138 142 145 148 148 145 142 139 135 136
178 172 238 178 227 243 230 241 96 96 154 149 134 257 217 202 174 176 167 171 170 165 166 167 168 167 167 162 157 151 145 146 148 146 144 143 143 142 143 144 150 154 159 165 166 165 158 153 144
182 164 204 229 242 245 248 254 279 238 183 172 125 296 207 174 175 170 160 167 169 164 166 166 169 169 170 166 163 156 149 149 154 154 149 147 145 145 149 151 159 168 173 181 186 190 188 180 176
185 177 148 223 239 245 251 258 266 264 266 143 119 250 15 186 167 160 161 165 167 165 166 166 168 171 171 171 168 161 156 153 158 160 159 153 151 153 154 158 170 182 189 199 209 214 214 221 225
169 115 204 204 232 257 242 252 224 263 269 256 164 171 144 157 153 157 163 163 163 166 166 165 167 171 174 176 173 168 165 163 164 167 167 164 163 164 164 171 180 190 201 212 223 231 237 244 248
208 118 223 212 219 259 233 247 263 275 289 135 135 69 170 158 153 155 162 163 163 166 169 167 169 172 176 179 177 176 174 173 172 175 178 177 175 175 179 186 194 202 215 229 241 248 250 256 264
209 201 221 216 204 249 280 334 265 327 220 117 172 168 170 154 154 151 157 160 166 169 171 172 172 174 178 180 180 182 183 182 181 183 186 187 188 189 195 201 214 225 239 251 261 268 273 270 271
187 211 227 207 231 264 280 252 285 330 28 98 118 147 151 164 160 156 160 162 172 173 174 176 176 177 179 183 185 187 189 187 186 188 190 194 198 202 208 218 232 240 259 273 278 280 279 284 286
213 230 233 280 248 267 271 306 320 291 196 154 142 151 156 164 166 164 166 169 176 179 178 178 179 180 183 186 187 189 190 190 190 192 195 200 206 212 218 222 238 268 288 300 300 298 296 292 287
280 260 245 281 278 266 272 300 305 295 269 204 165 161 157 167 174 175 176 178 179 188 185 180 182 183 183 186 189 189 190 191 195 196 201 207 213 219 227 221 225 289 306 320 322 311 305 295 291
248 284 276 253 257 267 281 280 297 289 294 196 168 165 167 176 185 185 186 183 184 187 189 186 185 187 185 186 186 187 187 190 192 203 210 217 224 228 235 247 246 299 301 297 303 300 311 318 322
278 310 286 259 259 262 259 294 287 281 295 183 169 168 171 175 178 185 187 185 185 182 191 193 191 190 187 184 188 189 190 174 179 184 192 218 239 246 244 267 276 289 300 294 293 297 294 309 298
307 274 280 257 244 256 229 268 246 262 274 154 163 177 182 184 183 181 185 193 192 190 184 187 193 195 188 174 175 188 171 174 181 184 182 239 282 310 264 264 274 278 282 291 284 292 292 294 302
293 203 241 248 226 241 184 253 257 261 216 168 158 168 178 175 166 167 173 189 195 193 187 181 186 189 194 184 188 183 188 216 212 222 240 275 284 278 264 279 293 288 282 281 283 284 286 292 295
246 249 227 294 202 209 184 232 246 249 172 153 153 165 174 166 159 162 181 183 197 197 200 191 190 187 190 187 189 196 195 197 215 233 238 259 273 261 264 283 296 295 287 284 278 287 291 295 284
216 209 247 221 201 200 218 233 264 171 159 161 165 168 168 164 182 181 184 196 175 177 196 211 201 194 197 201 194 199 202 209 210 226 244 249 254 255 258 274 288 300 294 283 279 280 290 288 288
273 286 271 286 240 161 214 230 226 189 171 158 179 175 178 180 158 164 164 150 188 194 29 228 222 212 208 207 210 214 216 217 228 238 253 268 282 284 286 291 289 292 290 292 284 279 272 284 289
256 265 269 286 239 178 176 224 236 169 166 182 169 179 177 181 176 178 185 200 232 212 244 228 264 239 203 212 210 227 234 242 240 245 257 274 300 296 284 279 283 283 294 295 288 295 290 283 287
242 247 255 249 255 201 126 272 205 216 174 171 187 172 156 170 169 175 191 184 159 169 163 216 220 235 230 223 207 197 222 239 229 236 238 255 279 279 277 274 272 280 286 304 297 293 294 289 291
245 237 249 267 266 203 171 207 250 218 195 161 191 170 158 160 160 156 161 154 174 188 206 166 199 207 224 231 220 218 210 208 178 175 218 241 271 264 257 274 289 303 278 289 297 297 294 294 303
239 240 247 272 259 161 149 112 227 110 217 210 201 180 157 170 167 163 168 164 164 181 175 194 211 211 219 223 226 232 267 264 253 266 264 278 281 288 300 293 297 294 286 290 286 306 321 328 312
235 308 267 265 225 222 180 129 222 211 210 135 171 185 159 166 170 168 173 168 170 167 166 171 170 170 170 165 179 200 201 239 260 273 288 299 299 302 323 329 319 311 306 303 315 319 314 318 311
199 263 250 162 156 194 185 164 212 219 158 164 166 183 159 170 172 176 177 176 171 167 158 155 160 155 160 160 167 184 207 266 280 268 236 164 217 302 306 319 319 325 331 328 324 324 327 326 320
193 205 248 114 149 155 166 201 212 195 157 177 182 175 156 175 178 180 181 181 177 166 156 155 161 161 166 170 160 157 136 86 130 150 169 130 51 350 339 325 318 327 334 335 336 334 332 327 324
187 199 221 304 116 127 194 147 125 127 155 163 171 167 157 175 187 180 177 177 174 169 158 155 160 166 164 150 157 159 137 125 133 128 102 53 3 333 320 318 329 332 327 325 325 326 328 332 328
228 335 190 242 163 130 191 162 183 176 173 171 169 158 135 136 143 147 149 157 161 157 156 161 162 165 159 154 155 158 149 145 124 94 304 330 342 331 324 319 319 320 326 330 333 335 335 333 334
174 240 231 77 178 147 140 201 203 171 164 168 159 131 118 117 124 130 138 143 144 147 150 147 148 149 152 152 142 142 132 113 71 330 349 353 354 337 324 329 333 339 339 339 342 347 349 348 350
273 261 201 133 107 55 118 297 311 190 171 145 119 119 119 123 123 128 133 135 136 134 134 139 141 139 132 128 122 107 99 85 60 28 1 350 347 347 341 339 338 343 350 356 1 8 9 7 2
Wind_Speed_850mb
21 22 20 10 4 6 8 13 12 4 2 1 15 9 6 19 12 11 22 74 75 76 70 62 57 55 50 44 41 41 44 47 47 46 45 42 39 36 35 35 34 33 32 31 30 30 30 30 29
18 17 13 3 7 5 12 13 39 13 18 31 27 35 10 14 37 18 67 65 74 74 70 63 58 57 52 46 41 41 42 45 44 44 42 40 37 35 31 32 32 31 29 26 24 24 24 25 26
15 16 13 8 9 16 12 22 11 4 27 24 6 11 45 22 35 49 72 75 77 73 70 64 60 59 54 48 42 40 40 42 41 40 39 37 34 31 30 28 27 27 25 22 19 18 19 20 21
12 12 8 7 18 16 23 15 5 10 14 16 28 14 15 45 55 68 77 82 75 72 69 63 60 61 55 49 44 40 38 39 38 37 35 33 30 27 26 25 23 23 22 19 15 14 13 14 15
21 7 4 9 21 13 21 44 22 12 28 28 35 27 9 41 54 72 81 78 75 71 65 62 61 62 57 51 46 40 37 35 37 35 33 30 26 24 22 21 19 18 17 16 14 13 12 10 11
12 7 4 23 17 31 33 48 24 39 34 44 51 77 3 38 67 80 80 82 74 71 65 62 61 60 56 51 46 41 35 33 33 33 31 29 25 22 20 17 16 16 15 15 15 13 12 12 10
10 8 12 9 30 35 30 12 25 36 23 46 86 16 32 57 70 73 78 78 71 65 64 64 63 59 55 51 47 41 36 33 32 33 32 29 25 21 19 17 15 14 13 14 14 14 13 13 13
16 6 9 14 19 25 10 38 41 33 25 33 67 9 27 65 60 58 75 72 70 67 63 66 66 63 59 54 48 43 38 33 31 33 34 32 27 22 19 16 13 12 11 11 11 12 11 11 12
27 6 16 20 21 10 27 6 22 25 32 14 18 70 66 71 62 61 65 63 64 61 62 64 66 64 60 56 51 46 43 39 35 36 35 32 27 22 18 14 12 11 11 11 12 13 13 13 11
13 13 16 9 10 12 21 15 36 7 7 20 48 60 91 77 70 72 68 66 68 62 59 59 61 62 61 59 56 51 46 41 37 35 34 32 28 23 18 16 13 12 12 13 15 17 19 18 16
10 16 23 9 33 43 37 21 30 13 5 53 70 78 96 80 76 71 68 58 58 60 61 59 57 57 57 55 51 49 43 38 35 34 33 32 30 27 24 20 15 13 14 17 21 22 23 21 23
10 8 33 18 41 44 25 25 21 37 33 49 85 105 90 74 75 74 71 63 59 66 64 62 59 57 53 49 47 42 39 36 34 32 32 32 30 28 25 19 9 11 16 19 23 23 24 26 21
19 12 28 36 61 68 42 30 19 50 62 56 99 104 102 92 80 82 71 68 58 63 66 65 61 57 52 48 44 39 35 31 26 25 25 27 28 27 26 21 12 14 20 23 23 24 22 25 30
13 20 28 48 51 57 30 19 25 60 61 80 102 103 97 98 89 80 80 74 64 55 63 61 57 52 46 40 33 31 27 23 20 17 14 11 15 24 24 16 17 19 28 33 32 29 33 33 35
23 20 21 24 47 28 7 19 36 68 27 73 77 91 88 72 67 66 73 69 63 58 55 59 53 46 43 34 20 19 24 19 16 10 5 5 4 5 15 23 24 21 30 31 39 37 41 43 39
6 7 7 12 26 19 21 27 30 46 32 55 69 60 68 62 54 66 57 52 65 63 59 53 50 45 46 39 32 28 23 18 13 14 12 10 12 14 16 20 26 28 29 33 33 32 31 38 44
6 8 17 12 15 11 26 18 32 37 27 37 61 69 70 56 51 58 65 44 41 47 59 60 57 49 46 42 37 33 27 22 19 21 19 19 19 20 25 26 24 28 35 40 38 36 33 42 48
13 10 9 25 11 24 21 22 14 24 26 34 49 73 74 61 50 43 47 43 46 29 29 54 55 53 48 42 40 41 42 36 29 25 27 17 19 26 29 31 33 39 33 32 32 36 36 44 53
20 19 14 12 18 14 27 10 22 15 10 28 50 54 70 65 66 57 60 47 68 61 27 28 41 42 49 52 53 53 46 43 39 31 23 22 24 29 34 36 35 30 31 28 32 36 44 54 55
27 26 27 22 16 13 15 21 19 12 9 27 46 53 53 55 55 60 56 46 26 52 50 88 61 54 49 44 28 34 40 35 30 31 21 14 15 20 22 20 21 25 24 29 36 43 40 45 51
27 22 24 20 13 16 15 5 10 10 12 16 44 51 63 69 65 61 59 46 36 44 27 73 32 32 38 34 28 22 18 21 26 26 24 25 23 27 26 27 27 23 24 39 37 41 40 48 51
24 27 28 30 16 15 17 12 10 13 8 12 33 50 55 74 67 59 50 47 41 63 36 56 67 45 45 36 33 28 29 15 15 11 13 17 17 21 27 25 31 29 36 36 37 43 41 32 33
17 20 24 26 23 9 9 12 19 10 11 14 16 49 61 62 62 57 47 39 36 65 37 38 43 41 36 33 26 22 19 16 21 16 15 19 20 21 21 18 23 18 21 24 22 15 21 23 26
22 21 26 23 12 15 16 13 11 16 31 9 9 43 51 65 65 63 51 54 45 48 52 45 33 25 20 15 11 12 11 14 20 22 19 13 11 14 10 11 11 11 13 19 21 23 25 23 25
23 20 6 8 7 10 15 18 14 32 15 16 17 37 49 74 81 73 60 48 50 47 42 39 41 36 32 22 16 12 8 9 14 10 4 7 3 7 7 10 13 15 16 17 18 21 23 26 28
18 10 5 9 11 11 18 16 18 24 26 41 45 51 44 74 87 78 63 59 52 51 54 50 41 37 32 30 22 10 4 3 3 5 5 2 3 6 11 16 19 20 22 26 28 31 32 32 32
12 15 23 5 2 14 8 4 15 15 17 21 41 54 46 52 76 75 65 58 59 58 54 43 38 31 27 23 19 13 9 5 11 7 4 4 8 13 19 21 25 27 29 31 34 36 36 37 37
20 16 11 4 17 13 6 10 13 21 20 22 26 37 36 53 49 55 58 64 71 69 60 47 41 31 27 23 18 13 10 10 8 3 10 10 12 13 15 21 24 25 28 32 34 36 37 36 33
11 9 8 1 12 10 11 14 12 18 25 28 23 48 69 77 75 76 78 81 81 75 65 57 46 41 35 25 21 17 14 10 7 6 6 8 10 12 16 20 24 29 32 34 35 32 30 30 29
21 4 4 6 6 4 10 7 16 18 33 38 44 63 76 94 90 92 90 85 79 73 64 53 45 39 31 23 21 23 19 14 9 8 10 13 16 18 21 22 25 28 32 33 33 31 29 30 32
Wind_Direction_850mb
240 237 253 287 51 72 243 246 248 73 6 194 85 96 126 147 269 244 161 168 169 166 164 163 164 161 157 150 143 137 140 139 137 136 138 138 137 132 130 128 127 127 125 123 123 123 123 122 121
231 227 218 200 133 189 252 211 238 247 199 131 137 99 60 122 259 193 163 169 171 168 166 164 164 163 161 153 147 140 142 142 139 138 139 139 137 134 132 132 135 137 134 131 132 130 128 127 128
214 194 171 162 189 212 232 233 116 346 172 134 310 174 138 217 239 179 171 169 171 169 166 165 166 165 164 157 151 146 144 145 143 140 140 140 139 139 138 138 142 145 148 148 145 142 139 135 136
178 172 238 178 227 243 230 241 96 96 154 149 134 257 217 202 174 176 167 171 170 165 166 167 168 167 167 162 157 151 145 146 148 146 144 143 143 142 143 144 150 154 159 165 166 165 158 153 144
182 164 204 229 242 245 248 254 279 238 183 172 125 296 207 174 175 170 160 167 169 164 166 166 169 169 170 166 163 156 149 149 154 154 149 147 145 145 149 151 159 168 173 181 186 190 188 180 176
185 177 148 223 239 245 251 258 266 264 266 143 119 250 15 186 167 160 161 165 167 165 166 166 168 171 171 171 168 161 156 153 158 160 159 153 151 153 154 158 170 182 189 199 209 214 214 221 225
169 115 204 204 232 257 242 252 224 263 269 256 164 171 144 157 153 157 163 163 163 166 166 165 167 171 174 176 173 168 165 163 164 167 167 164 163 164 164 171 180 190 201 212 223 231 237 244 248
208 118 223 212 219 259 233 247 263 275 289 135 135 69 170 158 153 155 162 163 163 166 169 167 169 172 176 179 177 176 174 173 172 175 178 177 175 175 179 186 194 202 215 229 241 248 250 256 264
209 201 221 216 204 249 280 334 265 327 220 117 172 168 170 154 154 151 157 160 166 169 171 172 172 174 178 180 180 182 183 182 181 183 186 187 188 189 195 201 214 225 239 251 261 268 273 270 271
187 211 227 207 231 264 280 252 285 330 28 98 118 147 151 164 160 156 160 162 172 173 174 176 176 177 179 183 185 187 189 187 186 188 190 194 198 202 208 218 232 240 259 273 278 280 279 284 286
213 230 233 280 248 267 271 306 320 291 196 154 142 151 156 164 166 164 166 169 176 179 178 178 179 180 183 186 187 189 190 190 190 192 195 200 206 212 218 222 238 268 288 300 300 298 296 292 287
280 260 245 281 278 266 272 300 305 295 269 204 165 161 157 167 174 175 176 178 179 188 185 180 182 183 183 186 189 189 190 191 195 196 201 207 213 219 227 221 225 289 306 320 322 311 305 295 291
248 284 276 253 257 267 281 280 297 289 294 196 168 165 167 176 185 185 186 183 184 187 189 186 185 187 185 186 186 187 187 190 192 203 210 217 224 228 235 247 246 299 301 297 303 300 311 318 322
278 310 286 259 259 262 259 294 287 281 295 183 169 168 171 175 178 185 187 185 185 182 191 193 191 190 187 184 188 189 190 174 179 184 192 218 239 246 244 267 276 289 300 294 293 297 294 309 298
307 274 280 257 244 256 229 268 246 262 274 154 163 177 182 184 183 181 185 193 192 190 184 187 193 195 188 174 175 188 171 174 181 184 182 239 282 310 264 264 274 278 282 291 284 292 292 294 302
293 203 241 248 226 241 184 253 257 261 216 168 158 168 178 175 166 167 173 189 195 193 187 181 186 189 194 184 188 183 188 216 212 222 240 275 284 278 264 279 293 288 282 281 283 284 286 292 295
246 249 227 294 202 209 184 232 246 249 172 153 153 165 174 166 159 162 181 183 197 197 200 191 190 187 190 187 189 196 195 197 215 233 238 259 273 261 264 283 296 295 287 284 278 287 291 295 284
216 209 247 221 201 200 218 233 264 171 159 161 165 168 168 164 182 181 184 196 175 177 196 211 201 194 197 201 194 199 202 209 210 226 244 249 254 255 258 274 288 300 294 283 279 280 290 288 288
273 286 271 286 240 161 214 230 226 189 171 158 179 175 178 180 158 164 164 150 188 194 29 228 222 212 208 207 210 214 216 217 228 238 253 268 282 284 286 291 289 292 290 292 284 279 272 284 289
256 265 269 286 239 178 176 224 236 169 166 182 169 179 177 181 176 178 185 200 232 212 244 228 264 239 203 212 210 227 234 242 240 245 257 274 300 296 284 279 283 283 294 295 288 295 290 283 287
242 247 255 249 255 201 126 272 205 216 174 171 187 172 156 170 169 175 191 184 159 169 163 216 220 235 230 223 207 197 222 239 229 236 238 255 279 279 277 274 272 280 286 304 297 293 294 289 291
245 237 249 267 266 203 171 207 250 218 195 161 191 170 158 160 160 156 161 154 174 188 206 166 199 207 224 231 220 218 210 208 178 175 218 241 271 264 257 274 289 303 278 289 297 297 294 294 303
239 240 247 272 259 161 149 112 227 110 217 210 201 180 157 170 167 163 168 164 164 181 175 194 211 211 219 223 226 232 267 264 253 266 264 278 281 288 300 293 297 294 286 290 286 306 321 328 312
235 308 267 265 225 222 180 129 222 211 210 135 171 185 159 166 170 168 173 168 170 167 166 171 170 170 170 165 179 200 201 239 260 273 288 299 299 302 323 329 319 311 306 303 315 319 314 318 311
199 263 250 162 156 194 185 164 212 219 158 164 166 183 159 170 172 176 177 176 171 167 158 155 160 155 160 160 167 184 207 266 280 268 236 164 217 302 306 319 319 325 331 328 324 324 327 326 320
193 205 248 114 149 155 166 201 212 195 157 177 182 175 156 175 178 180 181 181 177 166 156 155 161 161 166 170 160 157 136 86 130 150 169 130 51 350 339 325 318 327 334 335 336 334 332 327 324
187 199 221 304 116 127 194 147 125 127 155 163 171 167 157 175 187 180 177 177 174 169 158 155 160 166 164 150 157 159 137 125 133 128 102 53 3 333 320 318 329 332 327 325 325 326 328 332 328
228 335 190 242 163 130 191 162 183 176 173 171 169 158 135 136 143 147 149 157 161 157 156 161 162 165 159 154 155 158 149 145 124 94 304 330 342 331 324 319 319 320 326 330 333 335 335 333 334
174 240 231 77 178 147 140 201 203 171 164 168 159 131 118 117 124 130 138 143 144 147 150 147 148 149 152 152 142 142 132 113 71 330 349 353 354 337 324 329 333 339 339 339 342 347 349 348 350
273 261 201 133 107 55 118 297 311 190 171 145 119 119 119 123 123 128 133 135 136 134 134 139 141 139 132 128 122 107 99 85 60 28 1 350 347 347 341 339 338 343 350 356 1 8 9 7 2